Zurück zum Katalog

HULIANWANG DIGUI-101

AktivKommunikationLEO
NORAD 66417·PAYLOAD·🇨🇳 China

Gestartet Nov 10, 2025 von Wenchang Space Launch Site

Loading…

Nächste Überflüge (nächste 24 Stunden)

TLE

AktuellSource: Space-Track

Epoche: Sep 14, 2026, 14:27 UTC

1 66417U 25258F   26257.60211991 -.00000086  00000-0  82255-4 0  9998
2 66417  50.0018 334.9092 0000142 168.9787 191.1089 13.29327743 41637

Verfolge HULIANWANG DIGUI-101 in Echtzeit mit AllMySat

Download on the App Store